Weather History for Ft Lauderdale, FL

Change the Weather History Date:

Friday, June 28, 2013

  Actual Average Record
Temperature  
Mean Temperature 82 °F 84 °F  
Max Temperature 88 °F 89 °F 96 °F (1970)
Min Temperature 75 °F 78 °F 68 °F (1950)
Degree Days  
Heating Degree Days 0 0  
Month to date heating degree days 0 0  
Since 1 June heating degree days 0 0  
Since 1 July heating degree days 85 112  
Cooling Degree Days 17 18  
Month to date cooling degree days 508 501  
Year to date cooling degree days 1904 1919  
Since 1 June cooling degree days 508 501  
Growing Degree Days 32 (Base 50)    
Moisture  
Dew Point 72 °F    
Average Humidity 75    
Maximum Humidity 88    
Minimum Humidity 61    
Precipitation  
Precipitation 1.16 in 0.35 in 2.08 in (1987)
Month to date precipitation 14.43 9.45  
Year to date precipitation 39.22 26.94  
Snow  
Snow 0.00 in - - ()
Month to date snowfall 0.0  
Since 1 June snowfall 0.0  
Since 1 July snowfall 0.0  
Snow Depth 0.00 in    
Sea Level Pressure  
Sea Level Pressure 29.96 in    
Wind  
Wind Speed 6 mph (SSE)    
Max Wind Speed 25 mph    
Max Gust Speed 31 mph    
Visibility 8 miles    
Events Rain , Thunderstorm    
T = Trace of Precipitation, MM = Missing Value Source: NWS Daily Summary

Daily Weather History Graph

Daily Weather History Graph

Search for Another Location

Airport:

Trip Planner

Search our weather history database for the weather conditions in past years. The results will help you decide how hot, cold, wet, or windy it might be!

Date:

Astronomy

Jun. 28, 2013 Rise Set
Actual Time 6:31 AM EDT 8:16 PM EDT
Civil Twilight 6:05 AM EDT 8:42 PM EDT
Nautical Twilight 5:33 AM EDT 9:14 PM EDT
Astronomical Twilight 5:00 AM EDT 9:47 PM EDT
Moon No Moon Rise 12:01 PM EDT (6/28)
Length of Visible Light 14h 37m
Length of Day
13h 45m
Waning Gibbous, 66% of the Moon is Illuminated
Jun 28
Waning Gibbous
Jun 30
Last Quarter
Jul 8
New
Jul 15
First Quarter
Jul 22
Full

Hourly Weather History & Observations

Time (EDT) Temp. Heat Index Dew Point Humidity Pressure Visibility Wind Dir Wind Speed Gust Speed Precip Events Conditions
12:53 AM 81.0 °F 83.8 °F 68.0 °F 65% 29.99 in 10.0 mi SSE 3.5 mph - N/A   Partly Cloudy
1:53 AM 81.0 °F 86.2 °F 73.9 °F 79% 29.98 in 10.0 mi South 3.5 mph - N/A   Partly Cloudy
2:53 AM 80.1 °F 84.2 °F 73.0 °F 79% 29.97 in 10.0 mi South 3.5 mph - N/A   Partly Cloudy
3:53 AM 80.1 °F 84.2 °F 73.0 °F 79% 29.96 in 10.0 mi South 3.5 mph - N/A   Partly Cloudy
4:53 AM 79.0 °F - 73.0 °F 82% 29.96 in 10.0 mi Calm Calm - N/A   Partly Cloudy
5:53 AM 79.0 °F - 73.9 °F 84% 29.96 in 10.0 mi Calm Calm - N/A   Partly Cloudy
6:53 AM 78.1 °F - 73.9 °F 87% 29.98 in 10.0 mi Calm Calm - N/A   Partly Cloudy
7:53 AM 81.0 °F 86.2 °F 73.9 °F 79% 29.97 in 10.0 mi Calm Calm - N/A   Partly Cloudy
8:53 AM 82.9 °F 88.0 °F 72.0 °F 69% 29.98 in 10.0 mi Variable 3.5 mph - N/A   Scattered Clouds
9:53 AM 84.9 °F 91.4 °F 73.0 °F 67% 29.98 in 10.0 mi Variable 6.9 mph - N/A   Partly Cloudy
10:45 AM 82.4 °F 87.2 °F 71.6 °F 70% 29.99 in 1.5 mi SSE 16.1 mph 23.0 mph 0.00 in Rain Rain
10:53 AM 78.1 °F - 70.0 °F 76% 29.99 in 1.5 mi SE 18.4 mph 31.1 mph 0.04 in Rain Rain
10:54 AM 78.8 °F - 69.8 °F 74% 29.98 in 1.5 mi SE 19.6 mph 31.1 mph 0.00 in Rain , Thunderstorm Heavy Thunderstorms and Rain
11:08 AM 78.8 °F - 69.8 °F 74% 29.99 in 4.0 mi ESE 9.2 mph - 0.03 in Rain , Thunderstorm Thunderstorms and Rain
11:13 AM 78.8 °F - 71.6 °F 78% 29.99 in 2.5 mi SSE 17.3 mph - 0.07 in Rain Light Rain
11:16 AM 78.8 °F - 71.6 °F 78% 29.99 in 3.0 mi SE 9.2 mph 17.3 mph 0.13 in Rain , Thunderstorm Heavy Thunderstorms and Rain
11:53 AM 82.0 °F 89.4 °F 75.9 °F 82% 29.98 in 7.0 mi ENE 3.5 mph - 1.12 in Rain Light Rain
12:13 PM 84.2 °F 92.3 °F 75.2 °F 74% 29.98 in 10.0 mi ESE 6.9 mph - 0.00 in Thunderstorm Thunderstorm
12:39 PM 80.6 °F 84.6 °F 71.6 °F 74% 29.97 in 10.0 mi SW 5.8 mph - 0.00 in   Mostly Cloudy
12:53 PM 82.0 °F 85.9 °F 70.0 °F 67% 29.96 in 10.0 mi South 5.8 mph - 0.00 in   Mostly Cloudy
1:53 PM 86.0 °F 91.5 °F 71.1 °F 61% 29.94 in 10.0 mi South 5.8 mph - N/A   Partly Cloudy
2:53 PM 87.1 °F 94.5 °F 73.0 °F 63% 29.92 in 10.0 mi SSE 9.2 mph - N/A   Partly Cloudy
3:53 PM 87.1 °F 95.4 °F 73.9 °F 65% 29.89 in 10.0 mi ESE 15.0 mph - N/A   Scattered Clouds
4:53 PM 87.1 °F 94.5 °F 73.0 °F 63% 29.88 in 10.0 mi SE 13.8 mph - N/A   Partly Cloudy
5:53 PM 87.1 °F 94.5 °F 73.0 °F 63% 29.88 in 10.0 mi SE 13.8 mph - N/A   Partly Cloudy
6:53 PM 84.0 °F 89.6 °F 72.0 °F 67% 29.88 in 10.0 mi SSE 11.5 mph - N/A   Partly Cloudy
7:53 PM 84.0 °F 90.2 °F 73.0 °F 69% 29.92 in 10.0 mi SSE 6.9 mph - N/A   Scattered Clouds
8:53 PM 84.0 °F 90.2 °F 73.0 °F 69% 29.93 in 10.0 mi South 6.9 mph - N/A   Mostly Cloudy
9:53 PM 82.9 °F 88.8 °F 73.0 °F 72% 29.94 in 10.0 mi SSE 5.8 mph - N/A   Partly Cloudy
10:53 PM 82.9 °F 89.4 °F 73.9 °F 74% 29.95 in 10.0 mi SSE 4.6 mph - N/A   Mostly Cloudy
11:53 PM 77.0 °F - 73.0 °F 88% 29.94 in 10.0 mi North 6.9 mph - N/A   Scattered Clouds